Temperature
15 15 15 15 15 15 15 15 15 15 16 16 16 16 16 16 16 16 15 16 16 16 16 16 16 16 16 16 16 16 17 17 17 17 17 17 17 17 17 17 18 18 18
15 15 15 15 15 15 15 15 15 15 15 15 15 15 15 15 15 15 15 15 16 16 16 16 16 16 16 16 16 16 16 16 16 16 17 17 17 17 17 17 17 17 17
15 15 15 15 15 15 15 15 15 15 15 15 15 15 15 15 15 15 15 15 15 15 15 15 15 16 16 16 16 16 16 16 16 16 16 17 17 17 17 17 17 17 17
15 15 15 15 15 15 15 15 15 15 15 15 15 15 15 15 15 15 15 15 15 15 15 15 15 15 16 16 16 16 16 16 16 16 16 16 16 17 17 17 17 17 17
15 15 15 15 15 15 15 15 15 15 15 15 15 15 15 14 14 14 15 15 15 15 15 15 15 15 15 15 15 16 16 16 16 16 16 16 16 16 16 16 17 17 17
15 15 15 15 15 15 15 15 15 15 15 15 15 14 14 14 14 14 14 14 14 14 14 14 14 15 15 15 15 15 15 16 16 16 16 16 16 16 16 16 16 16 16
15 15 15 15 15 15 15 15 14 14 14 14 15 15 14 14 14 14 14 14 14 14 14 14 14 14 14 15 15 15 15 15 15 16 16 16 16 16 16 16 16 16 16
15 15 15 15 15 15 14 14 14 14 14 14 15 15 15 15 14 14 14 14 14 14 14 14 14 14 14 14 14 15 15 15 15 15 15 16 16 16 16 16 16 16 16
15 15 15 15 15 14 14 14 14 14 14 14 14 15 16 16 15 14 14 14 13 13 13 13 13 13 13 14 14 14 14 15 15 15 15 15 15 15 15 16 16 16 16
15 15 15 15 15 14 14 14 14 14 14 14 14 14 14 14 15 15 14 13 13 13 13 13 13 13 13 13 14 14 14 14 14 15 15 15 15 15 15 15 15 15 15
15 15 15 15 15 14 14 14 14 14 14 14 14 13 13 14 14 14 14 13 13 13 13 13 13 13 13 13 13 13 14 14 14 14 14 14 14 15 15 15 15 15 15
15 15 15 15 14 14 14 14 14 14 14 14 13 13 13 13 13 13 14 13 13 13 12 12 12 12 12 12 13 13 13 14 14 14 14 14 14 14 14 14 14 15 15
15 15 15 15 14 14 14 14 14 14 14 14 13 13 13 13 13 13 13 13 13 13 12 12 12 12 12 12 12 13 13 13 13 14 14 14 14 14 14 14 14 14 14
15 15 15 14 14 14 14 14 14 13 13 13 13 13 13 13 12 12 12 13 13 13 13 12 12 12 11 12 12 12 12 13 13 13 13 13 13 13 14 14 14 14 14
15 15 15 14 14 14 14 14 14 13 13 13 13 13 13 12 12 12 12 12 12 13 13 12 11 11 11 11 12 12 12 12 12 13 13 13 13 13 13 13 13 14 14
15 15 15 14 14 14 14 14 13 13 13 13 13 13 12 12 12 12 12 12 12 12 12 12 11 11 11 11 11 11 11 12 12 12 12 12 12 13 13 13 13 13 13
15 15 15 14 14 14 14 13 13 13 13 12 12 12 12 12 12 12 12 12 11 11 12 12 11 11 11 11 11 11 11 11 11 11 12 12 12 12 12 12 13 13 13
15 15 15 14 14 14 13 13 13 13 13 12 12 12 12 12 12 12 11 11 11 11 11 11 11 11 11 11 11 11 11 11 11 11 11 11 11 12 12 12 12 12 12
15 15 15 14 14 14 13 13 13 13 12 12 12 12 12 12 11 11 11 11 11 11 11 11 11 11 10 10 10 10 10 10 10 10 11 11 11 11 11 11 12 12 12
15 15 14 14 14 14 13 13 13 12 12 12 12 12 12 11 11 11 11 11 11 11 11 11 11 10 10 10 10 10 10 10 10 10 10 10 11 11 11 11 11 11 11
15 15 14 14 14 13 13 13 13 12 12 12 12 12 12 12 12 11 11 11 11 11 11 10 10 10 10 10 10 10 10 10 10 10 10 10 10 10 10 10 11 11 11
15 15 14 14 14 14 14 13 13 12 12 12 12 12 11 12 12 12 11 11 11 10 10 10 10 10 10 10 10 9 9 9 9 9 9 9 10 10 10 10 10 10 10
15 15 14 14 14 14 14 13 13 12 12 12 12 11 11 11 11 11 11 11 11 11 10 10 10 10 9 9 9 9 9 9 9 9 9 9 9 9 9 10 10 10 10
15 15 14 14 14 14 14 13 13 12 12 12 12 11 11 11 11 11 10 10 10 10 10 10 10 9 9 9 9 9 9 9 9 9 8 9 9 9 9 9 9 10 10
15 14 14 14 14 13 13 13 13 12 12 11 11 11 11 11 11 11 10 10 10 10 10 10 10 10 9 9 9 9 8 8 8 8 8 8 8 8 8 9 9 9 9
14 14 14 13 13 13 13 13 12 12 11 11 11 11 11 11 11 10 10 9 9 9 9 9 9 9 9 9 9 8 8 8 8 8 8 8 7 7 8 8 8 8 8
Wind_Speed
4 4 5 4 4 4 3 3 3 5 4 5 5 5 5 5 5 5 7 10 10 9 9 9 9 9 9 9 8 8 7 6 5 5 4 3 3 2 1 2 3 4 4
5 4 5 5 5 5 4 3 4 4 4 4 5 5 5 5 5 5 5 7 10 11 11 11 11 11 10 10 10 9 8 7 5 4 3 3 3 3 3 3 4 5 5
6 5 5 5 5 4 4 4 4 3 4 4 4 5 6 6 5 6 6 5 5 9 11 11 12 12 12 11 11 9 8 8 5 3 4 4 3 3 3 4 5 5 5
7 5 5 5 5 5 4 4 4 3 4 4 4 4 5 5 6 6 6 6 6 6 8 10 11 12 13 13 12 11 10 9 7 6 5 4 4 4 4 5 5 6 5
7 6 5 5 5 4 4 4 4 3 4 4 4 4 5 5 6 6 7 7 7 6 6 7 8 11 13 14 14 13 11 9 8 7 6 5 5 4 4 5 5 5 5
6 6 5 5 5 4 4 4 4 3 3 3 4 5 5 5 5 6 6 7 8 8 8 7 6 7 10 13 14 14 12 11 9 8 7 6 5 5 4 5 5 5 5
6 6 5 6 5 4 4 4 3 4 3 2 3 4 4 5 6 5 6 6 7 8 8 8 8 7 6 9 13 14 13 11 10 9 8 6 6 5 4 3 3 4 4
6 5 6 5 5 4 4 5 3 2 3 2 1 0 2 3 4 5 5 6 6 7 8 8 8 8 8 7 10 13 13 12 11 10 9 8 6 5 5 4 3 3 3
5 5 5 5 5 4 4 4 3 3 2 2 3 3 2 2 2 3 5 5 6 6 6 8 8 9 9 8 8 11 12 12 10 10 9 8 7 5 5 5 4 4 3
4 4 4 5 5 4 4 4 4 3 2 2 2 3 4 3 2 0 2 4 5 6 7 6 8 9 9 9 9 12 12 11 11 10 9 7 6 6 5 5 4 4 4
3 3 4 4 4 4 4 4 4 4 3 3 2 2 2 1 2 2 1 2 3 4 5 6 6 8 8 9 10 12 13 12 11 11 9 7 6 6 6 5 4 3 3
2 3 2 3 3 3 4 4 3 4 3 3 3 2 2 2 2 2 2 2 2 3 4 5 5 6 7 8 10 13 13 12 12 11 11 9 8 7 7 6 5 4 3
2 2 1 2 2 3 3 3 3 3 3 3 2 2 2 2 2 2 2 2 2 2 2 3 5 5 6 6 7 10 11 11 11 11 10 9 9 8 7 7 6 5 4
2 2 1 1 2 2 2 2 2 2 2 3 3 2 2 2 2 2 3 3 3 1 1 3 3 5 6 6 8 7 7 10 10 10 9 9 9 8 8 8 7 7 6
2 2 2 2 2 1 1 1 1 2 2 2 2 2 2 2 2 2 2 3 4 3 3 2 3 4 5 6 8 7 7 9 9 8 8 8 8 8 7 7 7 7 7
3 3 2 2 2 2 1 1 0 1 1 1 1 2 2 2 2 2 2 3 3 3 3 3 3 4 5 5 6 6 5 4 6 7 7 7 7 7 6 7 7 7 6
4 4 3 3 2 2 1 1 0 0 0 0 0 1 1 2 2 2 2 2 2 2 3 3 3 3 4 5 5 5 5 4 4 6 7 7 6 6 6 6 7 7 6
4 4 4 3 3 2 2 1 1 1 1 1 1 1 1 1 2 2 2 2 2 3 3 4 3 3 4 5 5 5 5 4 4 4 4 5 5 5 5 6 6 6 6
4 4 4 4 3 3 3 2 2 2 1 1 1 1 1 1 2 1 2 2 2 2 3 4 4 3 4 4 4 4 4 4 5 2 2 3 3 4 5 5 5 6 6
5 5 5 4 4 4 3 3 3 2 2 2 2 2 2 2 3 2 2 3 3 3 3 4 4 3 3 4 4 5 4 4 4 5 4 4 3 3 3 3 4 5 5
5 5 5 5 4 4 3 3 3 3 3 3 3 3 2 2 4 4 4 4 4 4 4 4 4 4 4 4 4 5 5 5 5 4 5 5 5 4 4 3 3 4 5
5 5 5 5 5 4 2 3 5 4 4 4 4 4 3 3 3 3 4 5 6 5 5 5 5 5 6 5 5 6 6 6 5 4 6 6 5 5 5 5 3 4 6
6 6 6 6 6 5 5 5 6 6 5 5 5 4 4 3 5 4 5 7 6 6 7 7 7 7 7 6 6 7 7 7 7 6 7 7 6 6 6 5 3 5 6
6 6 6 6 5 4 6 6 7 7 6 6 6 6 6 6 5 6 6 6 6 5 6 7 7 7 7 7 7 8 8 8 9 6 6 7 7 7 7 6 5 6 7
6 6 6 6 6 5 6 6 8 6 6 7 6 6 7 7 3 6 8 8 7 6 6 8 9 9 9 9 9 8 7 8 8 7 5 6 7 8 8 7 6 8 9
6 5 5 6 6 5 5 7 9 6 6 6 6 6 5 6 4 6 9 9 9 8 8 7 9 11 11 10 11 9 8 8 8 7 5 6 7 7 7 6 6 7 8
Wind_Direction
44 47 49 44 44 45 51 45 50 53 49 52 51 50 52 50 50 60 72 62 49 41 36 32 29 23 16 10 5 1 355 350 351 355 359 8 16 22 96 119 134 136 139
44 43 54 50 44 41 42 50 64 64 58 53 53 53 47 53 51 59 62 73 65 49 39 35 30 25 18 13 8 0 357 352 348 349 5 24 36 47 80 103 120 126 132
43 48 47 50 43 43 50 49 62 60 62 66 65 61 56 49 51 55 53 44 60 69 53 40 34 28 21 15 11 8 11 8 15 28 36 45 55 61 75 104 116 119 130
44 48 47 47 41 43 51 56 47 58 62 58 61 59 61 56 52 51 51 53 42 41 60 50 39 31 26 21 20 24 28 27 40 47 47 52 66 73 82 97 112 117 125
42 50 43 37 43 46 49 57 56 52 65 67 73 66 60 58 52 48 49 45 44 37 42 60 53 41 33 27 24 25 27 32 40 43 46 54 64 73 85 96 102 111 117
41 47 50 42 41 50 53 65 69 62 62 64 75 73 69 72 60 46 44 47 41 38 35 30 33 50 47 34 26 25 27 32 37 41 44 52 58 68 84 95 105 110 111
43 46 42 45 37 51 50 62 74 83 71 60 95 95 89 70 60 54 42 43 47 39 36 34 26 22 35 47 33 25 26 29 33 37 41 46 53 59 70 87 99 107 113
45 45 49 55 53 58 57 56 56 58 69 26 13 74 126 116 65 54 49 41 38 39 34 31 28 26 22 26 39 28 23 25 29 33 36 38 43 53 61 73 84 100 115
50 44 48 51 52 54 58 49 46 40 51 51 23 349 343 37 74 66 45 43 36 29 31 26 26 25 24 26 24 30 25 24 27 31 30 33 38 48 58 61 69 79 84
60 52 56 53 55 55 59 55 51 38 17 39 51 25 16 15 321 79 76 45 33 30 27 23 23 22 22 24 30 32 28 26 28 30 31 33 37 42 48 57 59 58 55
69 58 55 57 57 59 57 54 50 39 40 26 30 35 41 30 337 330 359 15 34 33 25 21 24 21 21 26 29 34 33 30 30 29 29 30 34 41 41 45 51 52 40
97 78 64 68 64 61 61 55 55 56 46 44 30 27 14 15 9 354 334 348 12 26 23 23 20 21 19 27 30 30 30 29 30 31 30 31 33 35 34 34 32 30 19
121 101 88 76 73 70 66 55 55 49 55 51 38 33 29 24 7 345 328 339 339 345 7 23 22 16 15 20 24 19 32 28 27 27 29 30 32 33 32 28 23 20 13
133 122 124 100 89 85 80 68 44 49 46 51 46 36 25 22 3 353 341 325 319 327 340 10 14 16 11 11 13 354 29 28 22 22 24 30 32 33 35 32 28 22 18
160 160 157 145 134 117 82 70 48 54 45 32 31 35 18 22 353 348 334 319 312 313 334 359 349 6 357 4 354 358 15 27 20 19 22 28 29 29 27 24 20 20 18
179 185 184 176 164 151 141 108 68 38 51 52 5 3 3 356 357 341 327 323 316 312 312 336 334 343 348 342 355 352 4 25 31 25 25 24 23 18 16 17 14 10 7
193 198 198 201 194 188 172 154 196 156 287 356 324 349 351 350 338 336 329 321 318 311 299 313 332 338 336 340 345 344 342 343 22 34 20 13 13 11 12 11 7 5 360
199 203 200 205 204 209 204 201 216 220 256 303 324 323 327 355 334 330 324 318 320 308 299 309 316 329 331 337 334 328 332 338 344 31 16 3 0 360 359 357 355 354 352
197 197 201 209 209 214 216 217 224 236 244 271 295 301 308 311 307 325 310 314 314 313 303 293 307 320 312 321 320 318 320 324 322 333 346 351 349 344 343 345 346 344 343
202 203 204 209 215 215 217 221 229 238 242 251 267 281 291 296 303 307 301 305 305 300 297 293 299 304 306 311 308 315 315 318 318 318 323 317 303 288 300 321 330 331 331
207 209 208 209 215 219 222 232 235 243 246 250 253 258 275 316 336 318 307 303 298 294 295 297 300 303 308 312 317 315 313 310 308 313 308 304 299 294 282 266 286 313 313
206 206 211 213 216 217 187 245 263 249 251 253 258 258 245 240 242 251 280 299 304 295 298 295 294 300 308 311 315 307 308 308 307 319 306 302 299 294 293 292 314 309 302
203 208 214 216 221 209 192 216 246 256 255 260 264 263 262 259 253 260 241 231 245 254 271 282 290 298 302 308 304 303 306 305 301 309 304 296 296 289 289 287 268 284 289
203 209 214 218 223 217 200 216 233 244 250 253 258 264 262 263 267 279 275 272 273 269 266 269 281 289 296 299 295 293 295 292 288 287 289 290 295 292 291 284 251 249 263
207 210 215 217 221 218 199 213 235 243 250 254 257 262 266 264 264 277 272 274 274 272 253 252 270 276 282 281 282 282 286 287 290 287 283 285 293 295 290 279 259 228 240
212 214 217 222 227 234 195 211 239 246 253 258 260 258 252 267 271 266 268 273 276 281 283 270 257 252 259 256 250 263 277 282 289 289 284 281 287 296 293 280 282 279 264
Height
1569 1568 1567 1565 1565 1564 1564 1563 1563 1562 1561 1561 1561 1560 1560 1559 1559 1558 1557 1556 1555 1555 1554 1553 1552 1551 1550 1549 1547 1545 1544 1543 1543 1542 1542 1541 1539 1536 1536 1538 1540 1541 1543
1570 1569 1569 1567 1566 1565 1565 1564 1564 1563 1562 1562 1561 1560 1560 1560 1560 1559 1558 1557 1556 1555 1554 1553 1552 1551 1550 1548 1546 1543 1541 1540 1539 1540 1540 1540 1539 1537 1537 1539 1540 1542 1543
1572 1571 1570 1569 1567 1566 1566 1565 1565 1564 1563 1562 1562 1561 1561 1560 1560 1560 1559 1558 1557 1556 1554 1553 1552 1551 1549 1548 1544 1539 1537 1536 1534 1536 1539 1540 1539 1538 1538 1539 1541 1543 1544
1573 1571 1571 1569 1568 1568 1567 1566 1565 1565 1564 1563 1563 1562 1562 1561 1561 1561 1560 1559 1558 1557 1555 1553 1552 1551 1549 1547 1545 1541 1539 1537 1535 1537 1539 1540 1540 1539 1539 1540 1541 1543 1545
1574 1573 1571 1570 1569 1568 1567 1567 1566 1566 1565 1564 1564 1563 1563 1562 1562 1561 1561 1560 1558 1557 1556 1554 1553 1551 1549 1548 1546 1543 1542 1541 1540 1540 1541 1541 1541 1540 1540 1541 1542 1544 1545
1574 1573 1572 1571 1570 1569 1568 1567 1566 1566 1566 1565 1565 1564 1564 1563 1563 1562 1562 1560 1559 1558 1556 1555 1554 1552 1550 1548 1546 1544 1543 1542 1542 1542 1542 1542 1542 1542 1542 1542 1543 1545 1546
1575 1574 1573 1572 1571 1570 1569 1569 1568 1567 1567 1566 1567 1566 1566 1565 1564 1563 1563 1562 1560 1559 1557 1556 1554 1552 1551 1549 1547 1545 1544 1543 1543 1543 1543 1543 1543 1543 1543 1544 1544 1545 1546
1576 1575 1574 1573 1572 1571 1570 1570 1569 1569 1568 1567 1568 1568 1567 1568 1566 1565 1564 1562 1561 1560 1558 1557 1555 1553 1551 1549 1547 1545 1544 1543 1543 1543 1543 1543 1543 1543 1543 1544 1544 1545 1546
1577 1576 1575 1574 1573 1573 1572 1570 1570 1569 1569 1568 1568 1569 1568 1567 1567 1567 1565 1563 1561 1560 1559 1557 1555 1553 1551 1549 1547 1544 1543 1543 1543 1542 1542 1542 1542 1543 1543 1544 1544 1545 1545
1577 1577 1576 1575 1574 1573 1572 1572 1571 1570 1569 1569 1568 1568 1568 1568 1568 1567 1566 1564 1562 1561 1559 1557 1555 1553 1551 1548 1545 1543 1542 1542 1542 1542 1542 1542 1542 1542 1543 1543 1544 1544 1544
1578 1577 1576 1576 1575 1574 1573 1572 1571 1570 1570 1570 1569 1569 1568 1567 1568 1567 1566 1565 1563 1561 1559 1557 1555 1553 1551 1548 1546 1543 1542 1543 1542 1542 1542 1542 1542 1542 1542 1542 1543 1543 1543
1579 1578 1577 1576 1576 1575 1574 1573 1572 1571 1570 1569 1569 1569 1569 1568 1568 1567 1566 1565 1564 1562 1559 1557 1556 1554 1552 1550 1547 1545 1544 1544 1543 1542 1541 1541 1541 1541 1541 1541 1541 1541 1542
1579 1578 1577 1577 1576 1575 1574 1573 1573 1572 1571 1570 1569 1569 1568 1568 1567 1567 1566 1565 1563 1562 1560 1559 1557 1554 1553 1551 1548 1546 1545 1544 1543 1542 1541 1541 1540 1540 1540 1540 1540 1540 1540
1579 1578 1577 1577 1576 1575 1575 1574 1573 1572 1572 1571 1570 1569 1568 1568 1567 1566 1566 1565 1564 1562 1561 1560 1557 1555 1553 1551 1549 1547 1546 1544 1543 1542 1541 1540 1539 1539 1539 1539 1538 1538 1538
1578 1577 1577 1577 1576 1575 1574 1574 1573 1573 1572 1571 1570 1569 1569 1568 1566 1566 1565 1564 1564 1562 1561 1559 1557 1555 1553 1551 1549 1547 1546 1544 1542 1541 1540 1539 1538 1538 1537 1537 1536 1535 1535
1577 1577 1577 1576 1576 1575 1574 1573 1573 1572 1572 1571 1569 1569 1568 1568 1566 1565 1564 1563 1562 1562 1560 1559 1556 1555 1552 1551 1548 1547 1545 1543 1542 1540 1539 1538 1537 1536 1535 1534 1534 1533 1532
1576 1576 1576 1576 1575 1574 1574 1573 1572 1572 1571 1571 1570 1569 1568 1566 1566 1565 1563 1562 1561 1561 1559 1558 1556 1554 1552 1550 1548 1546 1544 1543 1541 1539 1538 1537 1535 1534 1533 1532 1531 1530 1529
1574 1575 1575 1574 1574 1573 1573 1572 1571 1571 1570 1570 1569 1568 1567 1566 1565 1564 1563 1562 1560 1559 1559 1557 1555 1553 1551 1549 1547 1545 1544 1542 1540 1538 1536 1535 1534 1532 1531 1530 1529 1528 1527
1573 1573 1573 1573 1572 1572 1572 1571 1571 1570 1569 1569 1568 1567 1566 1565 1564 1563 1562 1561 1560 1558 1557 1555 1554 1552 1550 1548 1546 1544 1542 1540 1539 1537 1535 1533 1531 1530 1528 1527 1526 1525 1523
1571 1571 1571 1571 1571 1570 1570 1570 1569 1569 1568 1568 1567 1566 1565 1564 1563 1562 1561 1560 1558 1557 1555 1554 1553 1551 1549 1547 1545 1543 1541 1539 1537 1536 1533 1531 1529 1527 1526 1525 1523 1522 1521
1569 1569 1569 1569 1569 1569 1568 1568 1568 1567 1567 1566 1565 1564 1563 1562 1561 1560 1559 1558 1557 1556 1554 1553 1551 1549 1548 1545 1544 1541 1540 1538 1535 1533 1531 1529 1528 1526 1524 1522 1521 1519 1518
1566 1567 1567 1567 1567 1566 1566 1566 1566 1565 1565 1564 1564 1563 1562 1560 1559 1558 1557 1556 1555 1554 1552 1551 1549 1548 1546 1544 1541 1539 1538 1536 1534 1532 1529 1527 1525 1523 1521 1520 1518 1517 1515
1563 1564 1564 1564 1564 1564 1563 1563 1563 1563 1563 1562 1562 1561 1559 1558 1557 1556 1555 1553 1552 1550 1549 1549 1547 1546 1544 1542 1539 1537 1535 1533 1531 1528 1526 1524 1522 1520 1518 1517 1514 1513 1511
1560 1561 1561 1561 1561 1561 1561 1560 1560 1560 1560 1559 1558 1558 1557 1556 1554 1553 1552 1551 1550 1548 1546 1545 1544 1542 1540 1538 1536 1535 1532 1529 1527 1525 1523 1521 1519 1517 1515 1513 1510 1509 1507
1557 1558 1558 1558 1558 1558 1558 1558 1557 1557 1557 1556 1555 1554 1553 1553 1551 1550 1549 1548 1546 1545 1543 1541 1539 1538 1536 1534 1533 1531 1529 1527 1524 1523 1520 1518 1515 1513 1511 1508 1506 1504 1502
1554 1554 1555 1555 1555 1555 1555 1554 1554 1554 1554 1553 1552 1550 1549 1548 1547 1546 1545 1544 1543 1541 1540 1537 1535 1533 1532 1530 1528 1527 1525 1524 1521 1519 1517 1515 1512 1510 1507 1505 1503 1501 1499